Main page
METAR-TAF:

METAR-TAF

Airports :

Pontoise – Cormeilles Aerodrome

Pontoise, France

latitude: 49-05-48N, longitude: 002-02-27E, elevation: 99 m

Current weather observation

The report was made 42 minutes ago, at 06:00 UTC
Wind 3 kt from variable directions
Temperature 16°C
Humidity 82%
Pressure 1020 hPa
Visibility 10 km or more
no clouds below 1500 m and no cumulonimbus

METAR: LFPT 150600Z AUTO VRB03KT CAVOK 16/13 Q1020

Time: 08:42 (06:42 UTC)


TAF: missing

Weather observations and forecasts of more than 4000 airports (METAR and TAF reports).

The available stations are represented by yellow and red dots on the map.

Hover mouse over dot to see the name of the station.

Then click to see weather observations and forecasts.

To change the map : click on the green buttons with a black cross to zoom in, on the green button with a dash to zoom out, or on the green arrows for adjacent maps.


METAR-TAF: